This is the latest recevied weather packets stored in our database for station/object KC8RFE-2. If no packets are shown the sender has not sent any weather packets the latest 1 day(s).
| Time | Temp. | Humidity | Pressure | Rain* | Wind** | Luminosity | Snow |
|---|---|---|---|---|---|---|---|
| 1777984126 | 10.56° C | 9% | - | 0 mm | 0.45 m/s, 296° | - | - |
| 1777983797 | 10.56° C | 9% | - | 0 mm | 0.45 m/s, 274° | - | - |
| 1777983526 | 10.56° C | 9% | - | 0 mm | 0.45 m/s, 278° | - | - |
| 1777983226 | 10.56° C | 9% | - | 0 mm | 0 m/s | - | - |
| 1777982926 | 10.56° C | 9% | - | 0 mm | 0.45 m/s, 289° | - | - |
| 1777982600 | 10.56° C | 9% | - | 0 mm | 0.45 m/s, 253° | - | - |
| 1777982327 | 10.56° C | 9% | - | 0 mm | 0 m/s | - | - |
| 1777981998 | 10.56° C | 9% | - | 0.25 mm | 0.45 m/s, 278° | - | - |
| 1777981727 | 11.11° C | 9% | - | 0.25 mm | 0.45 m/s, 330° | - | - |
| 1777981398 | 11.11° C | 9% | - | 0.25 mm | 0.45 m/s, 358° | - | - |
| 1777981127 | 11.11° C | 9% | - | 0.25 mm | 0.45 m/s, 314° | - | - |
| 1777980798 | 11.11° C | 8% | - | 0.25 mm | 0.45 m/s, 275° | - | - |
| 1777980527 | 11.11° C | 8% | - | 0.25 mm | 0.45 m/s, 310° | - | - |
| 1777980198 | 11.11° C | 8% | - | 0.25 mm | 0.89 m/s, 1° | - | - |
| 1777979927 | 11.11° C | 8% | - | 0.25 mm | 1.34 m/s, 339° | - | - |
| 1777979598 | 11.11° C | 8% | - | 0.25 mm | 1.34 m/s, 347° | - | - |
| 1777979327 | 11.11° C | 9% | - | 0.25 mm | 1.79 m/s, 322° | - | - |
| 1777978997 | 11.11° C | 9% | - | 0.25 mm | 1.34 m/s, 344° | - | - |
| 1777978727 | 11.11° C | 9% | - | 0 mm | 0.89 m/s, 44° | - | - |
| 1777978397 | 11.67° C | 9% | - | 0 mm | 0.89 m/s, 334° | - | - |
| 1777978126 | 12.22° C | 9% | - | 0 mm | 1.34 m/s, 1° | - | - |
| 1777977798 | 12.22° C | 9% | - | 0 mm | 1.34 m/s, 329° | - | - |
| 1777977526 | 12.22° C | 9% | - | 0 mm | 1.34 m/s, 334° | - | - |
| 1777977198 | 11.67° C | 9% | - | 0 mm | 1.34 m/s, 3° | - | - |
| 1777976926 | 11.67° C | 9% | - | 0 mm | 0.45 m/s, 291° | - | - |
* Rain latest hour (hover to see other rain measurements)
** Current wind speed in m/s (hover to see current wind gust speed)